^^
Station Historical Data
Daily Summary for March 6, 2021 Units:  English    Metric   Both
Daily Weekly Monthly Yearly
  High: Low: Average:
Temperature: 32.5 °F 22 °F 26.8 °F
Dew Point: 22.4 °F 10.8 °F 16.9 °F
Humidity: 79% 47% 67%
Wind Speed: 7mph 0mph 3.6mph
Wind Gust: 11mph - -
Wind- - West
Pressure: 30.32 in 30.22 in -
Precipitation: 0.00 in    
 
 
Tabular Data for March 6, 2021
Time Temperature Dew Point Pressure Wind Wind Speed Wind Gust Humidity Rainfall Rate (Hourly) solar
00:00 27.4 °F 17.2 °F 30.22 in NNW 5 mph 5 mph 65% 0.00 in 0 W/m2
00:05 27.4 °F 17.2 °F 30.22 in NNW 4 mph 8 mph 65% 0.00 in 0 W/m2
00:10 27.3 °F 17.1 °F 30.22 in NW 4 mph 4 mph 65% 0.00 in 0 W/m2
00:15 27.2 °F 16.6 °F 30.22 in NNE 4 mph 4 mph 64% 0.00 in 0 W/m2
00:20 27.1 °F 17.2 °F 30.22 in WNW 4 mph 9 mph 66% 0.00 in 0 W/m2
00:25 27.1 °F 17.2 °F 30.22 in NNW 5 mph 9 mph 66% 0.00 in 0 W/m2
00:30 27 °F 17.1 °F 30.22 in North 5 mph 5 mph 66% 0.00 in 0 W/m2
00:35 26.8 °F 17.3 °F 30.22 in NW 4 mph 5 mph 67% 0.00 in 0 W/m2
00:40 26.9 °F 17.4 °F 30.22 in NW 5 mph 5 mph 67% 0.00 in 0 W/m2
00:45 26.8 °F 17.3 °F 30.22 in West 5 mph 5 mph 67% 0.00 in 0 W/m2
00:50 26.6 °F 17.5 °F 30.22 in NNE 4 mph 8 mph 68% 0.00 in 0 W/m2
00:55 26.6 °F 17.8 °F 30.22 in NW 4 mph 8 mph 69% 0.00 in 0 W/m2
01:00 26.6 °F 17.5 °F 30.23 in NW 4 mph 6 mph 68% 0.00 in 0 W/m2
01:05 26.6 °F 17.5 °F 30.23 in WNW 5 mph 6 mph 68% 0.00 in 0 W/m2
01:10 26.5 °F 17.7 °F 30.23 in NW 5 mph 5 mph 69% 0.00 in 0 W/m2
01:15 26.6 °F 17.5 °F 30.23 in NW 6 mph 6 mph 68% 0.00 in 0 W/m2
01:20 26.6 °F 17.8 °F 30.23 in NNW 6 mph 8 mph 69% 0.00 in 0 W/m2
01:25 26.4 °F 17.9 °F 30.23 in West 6 mph 8 mph 70% 0.00 in 0 W/m2
01:30 26.3 °F 18.2 °F 30.23 in WNW 5 mph 5 mph 71% 0.00 in 0 W/m2
01:35 26.2 °F 18.1 °F 30.23 in NNW 5 mph 6 mph 71% 0.00 in 0 W/m2
01:40 26.1 °F 18 °F 30.23 in NW 5 mph 10 mph 71% 0.00 in 0 W/m2
01:45 26.1 °F 18 °F 30.23 in NW 6 mph 10 mph 71% 0.00 in 0 W/m2
01:50 26.1 °F 18.3 °F 30.23 in North 6 mph 6 mph 72% 0.00 in 0 W/m2
01:55 26 °F 18.2 °F 30.23 in NW 6 mph 6 mph 72% 0.00 in 0 W/m2
02:00 25.9 °F 18.1 °F 30.23 in WNW 5 mph 5 mph 72% 0.00 in 0 W/m2
02:05 25.9 °F 18.1 °F 30.23 in WNW 6 mph 6 mph 72% 0.00 in 0 W/m2
02:10 25.9 °F 18.4 °F 30.23 in NNW 6 mph 11 mph 73% 0.00 in 0 W/m2
02:15 25.8 °F 18.3 °F 30.23 in NW 6 mph 11 mph 73% 0.00 in 0 W/m2
02:20 25.6 °F 18.5 °F 30.23 in NW 5 mph 5 mph 74% 0.00 in 0 W/m2
02:25 25.3 °F 18.2 °F 30.23 in NNW 4 mph 6 mph 74% 0.00 in 0 W/m2
02:30 25.2 °F 18.1 °F 30.23 in NNW 4 mph 4 mph 74% 0.00 in 0 W/m2
02:35 25 °F 18.2 °F 30.23 in NW 4 mph 4 mph 75% 0.00 in 0 W/m2
02:40 24.9 °F 18.1 °F 30.23 in West 4 mph 4 mph 75% 0.00 in 0 W/m2
02:45 24.9 °F 18.4 °F 30.23 in NNW 4 mph 6 mph 76% 0.00 in 0 W/m2
02:50 24.9 °F 18.4 °F 30.23 in NW 4 mph 5 mph 76% 0.00 in 0 W/m2
02:55 24.8 °F 18.3 °F 30.23 in NW 5 mph 5 mph 76% 0.00 in 0 W/m2
03:00 24.8 °F 18.3 °F 30.23 in NW 4 mph 4 mph 76% 0.00 in 0 W/m2
03:05 24.8 °F 18.3 °F 30.23 in NW 5 mph 5 mph 76% 0.00 in 0 W/m2
03:10 24.8 °F 18.3 °F 30.23 in NNW 5 mph 5 mph 76% 0.00 in 0 W/m2
03:15 24.9 °F 18.7 °F 30.23 in NW 4 mph 5 mph 77% 0.00 in 0 W/m2
03:20 24.9 °F 18.4 °F 30.23 in NNW 5 mph 5 mph 76% 0.00 in 0 W/m2
03:25 24.9 °F 18.4 °F 30.23 in NW 5 mph 5 mph 76% 0.00 in 0 W/m2
03:30 24.9 °F 18.4 °F 30.23 in NW 4 mph 4 mph 76% 0.00 in 0 W/m2
03:35 24.8 °F 18.6 °F 30.23 in NNW 4 mph 5 mph 77% 0.00 in 0 W/m2
03:40 24.8 °F 18.6 °F 30.23 in NNW 4 mph 4 mph 77% 0.00 in 0 W/m2
03:45 24.7 °F 18.5 °F 30.23 in WNW 4 mph 4 mph 77% 0.00 in 0 W/m2
03:50 24.7 °F 18.5 °F 30.23 in NNE 5 mph 5 mph 77% 0.00 in 0 W/m2
03:55 24.7 °F 18.2 °F 30.23 in NNW 4 mph 5 mph 76% 0.00 in 0 W/m2
04:00 24.6 °F 18.1 °F 30.23 in NNW 3 mph 3 mph 76% 0.00 in 0 W/m2
04:05 24.5 °F 18.3 °F 30.23 in WNW 3 mph 5 mph 77% 0.00 in 0 W/m2
04:10 24.5 °F 18.3 °F 30.23 in NW 3 mph 4 mph 77% 0.00 in 0 W/m2
04:15 24.5 °F 18 °F 30.23 in NW 4 mph 6 mph 76% 0.00 in 0 W/m2
04:20 24.6 °F 18.1 °F 30.23 in NW 4 mph 5 mph 76% 0.00 in 0 W/m2
04:25 24.6 °F 18.1 °F 30.24 in NNW 4 mph 5 mph 76% 0.00 in 0 W/m2
04:30 24.5 °F 18 °F 30.24 in WNW 4 mph 4 mph 76% 0.00 in 0 W/m2
04:35 24.3 °F 17.8 °F 30.24 in NW 4 mph 6 mph 76% 0.00 in 0 W/m2
04:40 24.1 °F 17.9 °F 30.24 in WNW 4 mph 4 mph 77% 0.00 in 0 W/m2
04:45 24.1 °F 17.6 °F 30.24 in WNW 5 mph 5 mph 76% 0.00 in 0 W/m2
04:50 23.8 °F 17.6 °F 30.24 in WNW 4 mph 4 mph 77% 0.00 in 0 W/m2
04:55 23.5 °F 17.3 °F 30.24 in WNW 4 mph 5 mph 77% 0.00 in 0 W/m2
05:00 23.4 °F 17.3 °F 30.24 in NNW 4 mph 4 mph 77% 0.00 in 0 W/m2
05:05 23.3 °F 17.2 °F 30.25 in NW 4 mph 9 mph 77% 0.00 in 0 W/m2
05:10 23.3 °F 17.2 °F 30.25 in NW 4 mph 6 mph 77% 0.00 in 0 W/m2
05:15 23.2 °F 17.1 °F 30.25 in WNW 4 mph 6 mph 77% 0.00 in 0 W/m2
05:20 23 °F 16.9 °F 30.25 in NW 4 mph 4 mph 77% 0.00 in 0 W/m2
05:25 23 °F 16.6 °F 30.25 in WNW 4 mph 4 mph 76% 0.00 in 0 W/m2
05:30 23.1 °F 16.7 °F 30.25 in WNW 4 mph 4 mph 76% 0.00 in 0 W/m2
05:35 22.9 °F 16.8 °F 30.25 in West 4 mph 4 mph 77% 0.00 in 0 W/m2
05:40 22.8 °F 16.7 °F 30.25 in WNW 4 mph 4 mph 77% 0.00 in 0 W/m2
05:45 22.8 °F 16.7 °F 30.25 in NNW 4 mph 6 mph 77% 0.00 in 0 W/m2
05:50 22.8 °F 16.7 °F 30.25 in NW 4 mph 8 mph 77% 0.00 in 0 W/m2
05:55 22.8 °F 16.7 °F 30.25 in NNE 5 mph 8 mph 77% 0.00 in 0 W/m2
06:00 22.9 °F 16.8 °F 30.25 in NW 5 mph 6 mph 77% 0.00 in 0 W/m2
06:05 22.7 °F 16.6 °F 30.25 in NW 5 mph 6 mph 77% 0.00 in 0 W/m2
06:10 22.6 °F 16.5 °F 30.25 in NW 4 mph 5 mph 77% 0.00 in 0 W/m2
06:15 22.5 °F 16.4 °F 30.26 in NNW 4 mph 5 mph 77% 0.00 in 0 W/m2
06:20 22.5 °F 16.7 °F 30.26 in WNW 5 mph 5 mph 78% 0.00 in 0 W/m2
06:25 22.5 °F 16.4 °F 30.26 in NW 5 mph 5 mph 77% 0.00 in 0 W/m2
06:30 22.2 °F 16.4 °F 30.26 in NW 5 mph 5 mph 78% 0.00 in 0 W/m2
06:35 22.2 °F 16.4 °F 30.26 in NW 5 mph 6 mph 78% 0.00 in 0 W/m2
06:40 22.7 °F 16.3 °F 30.26 in NW 5 mph 9 mph 76% 0.00 in 0 W/m2
06:45 23.1 °F 16.4 °F 30.26 in WNW 7 mph 9 mph 75% 0.00 in 0 W/m2
06:50 23.2 °F 16.8 °F 30.26 in NW 6 mph 6 mph 76% 0.00 in 0 W/m2
06:55 22.7 °F 16.3 °F 30.27 in West 4 mph 6 mph 76% 0.00 in 0 W/m2
07:00 22.3 °F 16.2 °F 30.27 in North 4 mph 4 mph 77% 0.00 in 5 W/m2
07:05 22 °F 16.2 °F 30.27 in NW 3 mph 5 mph 78% 0.00 in 7 W/m2
07:10 22 °F 16.5 °F 30.27 in NW 4 mph 4 mph 79% 0.00 in 9 W/m2
07:15 22.2 °F 16.7 °F 30.27 in NNW 4 mph 4 mph 79% 0.00 in 12 W/m2
07:20 22.4 °F 16.3 °F 30.27 in West 4 mph 7 mph 77% 0.00 in 14 W/m2
07:25 22.7 °F 16 °F 30.27 in West 5 mph 8 mph 75% 0.00 in 19 W/m2
07:30 22.8 °F 14.8 °F 30.27 in NW 6 mph 6 mph 71% 0.00 in 30 W/m2
07:35 22.8 °F 14.1 °F 30.27 in North 4 mph 6 mph 69% 0.00 in 54 W/m2
07:40 22.8 °F 13.5 °F 30.27 in NNW 4 mph 4 mph 67% 0.00 in 76 W/m2
07:45 22.8 °F 13.5 °F 30.27 in NNW 4 mph 4 mph 67% 0.00 in 88 W/m2
07:50 22.9 °F 13.2 °F 30.28 in NW 4 mph 4 mph 66% 0.00 in 105 W/m2
07:55 22.9 °F 13.6 °F 30.28 in North 3 mph 4 mph 67% 0.00 in 121 W/m2
08:00 23 °F 13.7 °F 30.28 in NW 3 mph 3 mph 67% 0.00 in 137 W/m2
08:05 23.1 °F 13.4 °F 30.29 in NNW 3 mph 4 mph 66% 0.00 in 151 W/m2
08:10 23.3 °F 12.9 °F 30.29 in NNW 3 mph 3 mph 64% 0.00 in 165 W/m2
08:15 23.4 °F 13.4 °F 30.29 in NW 4 mph 6 mph 65% 0.00 in 181 W/m2
08:20 23.5 °F 13.5 °F 30.29 in NNW 4 mph 4 mph 65% 0.00 in 193 W/m2
08:25 23.7 °F 12.6 °F 30.29 in NW 4 mph 9 mph 62% 0.00 in 158 W/m2
08:30 23.7 °F 12.6 °F 30.29 in North 4 mph 5 mph 62% 0.00 in 118 W/m2
08:35 23.8 °F 12.7 °F 30.29 in NNW 5 mph 5 mph 62% 0.00 in 165 W/m2
08:40 24 °F 12.1 °F 30.29 in NW 7 mph 7 mph 60% 0.00 in 193 W/m2
08:45 24.1 °F 12.2 °F 30.29 in NW 5 mph 7 mph 60% 0.00 in 220 W/m2
08:50 24.3 °F 12.8 °F 30.29 in WNW 3 mph 8 mph 61% 0.00 in 185 W/m2
08:55 24.5 °F 12.6 °F 30.29 in North 4 mph 8 mph 60% 0.00 in 79 W/m2
09:00 24.5 °F 11.8 °F 30.29 in NNW 5 mph 5 mph 58% 0.00 in 165 W/m2
09:05 24.8 °F 11.7 °F 30.29 in NNW 5 mph 5 mph 57% 0.00 in 225 W/m2
09:10 25 °F 11.5 °F 30.29 in NW 5 mph 5 mph 56% 0.00 in 128 W/m2
09:15 25.1 °F 12 °F 30.29 in North 5 mph 5 mph 57% 0.00 in 308 W/m2
09:20 25.6 °F 12.5 °F 30.29 in NW 5 mph 10 mph 57% 0.00 in 315 W/m2
09:25 25.8 °F 11.8 °F 30.29 in NNW 5 mph 10 mph 55% 0.00 in 315 W/m2
09:30 26 °F 12 °F 30.29 in NW 5 mph 8 mph 55% 0.00 in 352 W/m2
09:35 26.5 °F 12.5 °F 30.29 in NNW 4 mph 8 mph 55% 0.00 in 294 W/m2
09:40 26.4 °F 12 °F 30.29 in NNW 4 mph 5 mph 54% 0.00 in 332 W/m2
09:45 26.6 °F 12.2 °F 30.29 in NW 5 mph 5 mph 54% 0.00 in 371 W/m2
09:50 26.7 °F 12.7 °F 30.29 in NW 4 mph 5 mph 55% 0.00 in 288 W/m2
09:55 26.9 °F 12.9 °F 30.29 in NW 4 mph 5 mph 55% 0.00 in 257 W/m2
10:00 26.9 °F 12.5 °F 30.29 in NNW 4 mph 4 mph 54% 0.00 in 306 W/m2
10:05 26.7 °F 13.1 °F 30.29 in NNW 5 mph 5 mph 56% 0.00 in 424 W/m2
10:10 27.3 °F 13.2 °F 30.29 in NW 4 mph 4 mph 55% 0.00 in 452 W/m2
10:15 27.2 °F 13.6 °F 30.29 in North 3 mph 8 mph 56% 0.00 in 410 W/m2
10:20 27.5 °F 13.8 °F 30.29 in NNW 4 mph 4 mph 56% 0.00 in 517 W/m2
10:25 27.2 °F 12.7 °F 30.29 in NW 4 mph 4 mph 54% 0.00 in 531 W/m2
10:30 27.5 °F 14.2 °F 30.30 in NNW 4 mph 4 mph 57% 0.00 in 362 W/m2
10:35 27.5 °F 13 °F 30.30 in NW 4 mph 4 mph 54% 0.00 in 408 W/m2
10:40 27.9 °F 13 °F 30.30 in NNW 4 mph 9 mph 53% 0.00 in 457 W/m2
10:45 27.9 °F 13.4 °F 30.29 in North 4 mph 9 mph 54% 0.00 in 468 W/m2
10:50 28 °F 13.5 °F 30.29 in NNW 5 mph 5 mph 54% 0.00 in 578 W/m2
10:55 28.1 °F 14 °F 30.29 in North 4 mph 5 mph 55% 0.00 in 584 W/m2
11:00 27.9 °F 11.6 °F 30.29 in NNW 5 mph 5 mph 50% 0.00 in 315 W/m2
11:05 27.9 °F 11.6 °F 30.29 in NNW 5 mph 5 mph 50% 0.00 in 311 W/m2
11:10 28 °F 11.3 °F 30.29 in West 4 mph 4 mph 49% 0.00 in 429 W/m2
11:15 27.7 °F 11 °F 30.29 in NW 4 mph 4 mph 49% 0.00 in 619 W/m2
11:20 28.2 °F 11.5 °F 30.29 in NNW 5 mph 6 mph 49% 0.00 in 628 W/m2
11:25 28 °F 10.8 °F 30.29 in West 5 mph 6 mph 48% 0.00 in 633 W/m2
11:30 28.2 °F 11.5 °F 30.29 in WNW 4 mph 4 mph 49% 0.00 in 638 W/m2
11:35 28.3 °F 11.6 °F 30.29 in NNW 4 mph 4 mph 49% 0.00 in 647 W/m2
11:40 28.4 °F 11.2 °F 30.29 in WNW 4 mph 4 mph 48% 0.00 in 652 W/m2
11:45 28.8 °F 11.6 °F 30.29 in WNW 3 mph 4 mph 48% 0.00 in 659 W/m2
11:50 28.7 °F 12.4 °F 30.29 in North 4 mph 4 mph 50% 0.00 in 663 W/m2
11:55 29 °F 13.1 °F 30.29 in NNW 4 mph 4 mph 51% 0.00 in 666 W/m2
12:00 29.2 °F 12.8 °F 30.29 in NNE 4 mph 4 mph 50% 0.00 in 671 W/m2
12:05 29.5 °F 14.5 °F 30.29 in NNW 3 mph 4 mph 53% 0.00 in 677 W/m2
12:10 29.5 °F 12.7 °F 30.29 in West 4 mph 4 mph 49% 0.00 in 679 W/m2
12:15 29.5 °F 13.1 °F 30.29 in West 4 mph 4 mph 50% 0.00 in 682 W/m2
12:20 29.5 °F 13.1 °F 30.29 in North 4 mph 4 mph 50% 0.00 in 684 W/m2
12:25 30 °F 12.7 °F 30.29 in NW 3 mph 4 mph 48% 0.00 in 689 W/m2
12:30 29.6 °F 11.8 °F 30.29 in WSW 3 mph 4 mph 47% 0.00 in 691 W/m2
12:35 31 °F 15.4 °F 30.28 in West 3 mph 4 mph 52% 0.00 in 693 W/m2
12:40 30.1 °F 16.3 °F 30.28 in SW 4 mph 4 mph 56% 0.00 in 694 W/m2
12:45 30.3 °F 17.7 °F 30.28 in West 4 mph 4 mph 59% 0.00 in 693 W/m2
12:50 30.4 °F 17.8 °F 30.28 in SW 3 mph 4 mph 59% 0.00 in 694 W/m2
12:55 29 °F 16.4 °F 30.28 in SSW 4 mph 5 mph 59% 0.00 in 694 W/m2
13:00 30 °F 17.8 °F 30.27 in SSW 4 mph 4 mph 60% 0.00 in 694 W/m2
13:05 30.3 °F 16.9 °F 30.27 in SSW 4 mph 6 mph 57% 0.00 in 693 W/m2
13:10 29.2 °F 16.6 °F 30.27 in South 4 mph 4 mph 59% 0.00 in 694 W/m2
13:15 29.5 °F 17.3 °F 30.27 in WSW 5 mph 5 mph 60% 0.00 in 693 W/m2
13:20 30.2 °F 18.4 °F 30.27 in WSW 4 mph 4 mph 61% 0.00 in 691 W/m2
13:25 31.4 °F 19.1 °F 30.27 in WNW 3 mph 4 mph 60% 0.00 in 687 W/m2
13:30 31 °F 18.3 °F 30.27 in WSW 3 mph 3 mph 59% 0.00 in 686 W/m2
13:35 31.2 °F 20.1 °F 30.27 in WSW 3 mph 4 mph 63% 0.00 in 680 W/m2
13:40 31.3 °F 20.5 °F 30.26 in WSW 4 mph 4 mph 64% 0.00 in 677 W/m2
13:45 31 °F 19.5 °F 30.26 in WSW 5 mph 5 mph 62% 0.00 in 673 W/m2
13:50 31.3 °F 19.8 °F 30.26 in WSW 5 mph 6 mph 62% 0.00 in 668 W/m2
13:55 31.7 °F 19 °F 30.26 in SW 5 mph 6 mph 59% 0.00 in 663 W/m2
14:00 31.9 °F 18.8 °F 30.26 in WSW 5 mph 7 mph 58% 0.00 in 659 W/m2
14:05 32 °F 19.3 °F 30.26 in WSW 5 mph 8 mph 59% 0.00 in 652 W/m2
14:10 31.9 °F 19.6 °F 30.25 in SW 5 mph 5 mph 60% 0.00 in 645 W/m2
14:15 31.6 °F 19.3 °F 30.25 in SSW 5 mph 7 mph 60% 0.00 in 638 W/m2
14:20 30.8 °F 19.3 °F 30.25 in SW 5 mph 6 mph 62% 0.00 in 633 W/m2
14:25 30.8 °F 20 °F 30.25 in SW 5 mph 6 mph 64% 0.00 in 624 W/m2
14:30 30.8 °F 20 °F 30.25 in SW 5 mph 5 mph 64% 0.00 in 617 W/m2
14:35 30.5 °F 19.8 °F 30.25 in SW 5 mph 5 mph 64% 0.00 in 612 W/m2
14:40 30.7 °F 19.2 °F 30.24 in SW 5 mph 5 mph 62% 0.00 in 605 W/m2
14:45 30.3 °F 18.1 °F 30.24 in SW 5 mph 5 mph 60% 0.00 in 594 W/m2
14:50 30.6 °F 18.7 °F 30.24 in SW 5 mph 5 mph 61% 0.00 in 587 W/m2
14:55 31 °F 18.3 °F 30.24 in SSW 5 mph 7 mph 59% 0.00 in 577 W/m2
15:00 30.7 °F 19.2 °F 30.24 in West 5 mph 5 mph 62% 0.00 in 568 W/m2
15:05 31.6 °F 20.1 °F 30.24 in SW 5 mph 5 mph 62% 0.00 in 557 W/m2
15:10 31.2 °F 19.7 °F 30.24 in SSW 5 mph 5 mph 62% 0.00 in 547 W/m2
15:15 31.1 °F 19.6 °F 30.24 in SSW 6 mph 6 mph 62% 0.00 in 536 W/m2
15:20 31.2 °F 20.8 °F 30.24 in SSE 5 mph 5 mph 65% 0.00 in 526 W/m2
15:25 31 °F 20.6 °F 30.24 in SE 4 mph 5 mph 65% 0.00 in 513 W/m2
15:30 31.3 °F 21.3 °F 30.24 in SSW 4 mph 4 mph 66% 0.00 in 501 W/m2
15:35 31.3 °F 19.4 °F 30.24 in SSW 3 mph 4 mph 61% 0.00 in 490 W/m2
15:40 31.1 °F 19.6 °F 30.24 in SSW 4 mph 5 mph 62% 0.00 in 476 W/m2
15:45 31.3 °F 21.6 °F 30.24 in South 4 mph 5 mph 67% 0.00 in 466 W/m2
15:50 31.6 °F 21.9 °F 30.23 in SSW 3 mph 4 mph 67% 0.00 in 454 W/m2
15:55 31.8 °F 21.7 °F 30.23 in SSE 2 mph 4 mph 66% 0.00 in 441 W/m2
16:00 31.8 °F 21.4 °F 30.23 in SW 2 mph 2 mph 65% 0.00 in 427 W/m2
16:10 32.3 °F 22.2 °F 30.23 in West 1 mph 2 mph 66% 0.00 in 399 W/m2
16:15 32.5 °F 22.4 °F 30.23 in WSW 1 mph 2 mph 66% 0.00 in 385 W/m2
17:50 32.2 °F 19.1 °F 30.23 in West 2 mph 2 mph 58% 0.00 in 67 W/m2
17:55 32.3 °F 18.3 °F 30.23 in West 2 mph 2 mph 56% 0.00 in 30 W/m2
18:00 32.2 °F 18.2 °F 30.24 in West 1 mph 1 mph 56% 0.00 in 23 W/m2
18:05 31.9 °F 18 °F 30.24 in West 1 mph 2 mph 56% 0.00 in 28 W/m2
18:10 31.7 °F 17.8 °F 30.24 in West 2 mph 2 mph 56% 0.00 in 19 W/m2
18:15 31.5 °F 18 °F 30.24 in West 2 mph 2 mph 57% 0.00 in 16 W/m2
18:20 31.2 °F 18.1 °F 30.24 in West 1 mph 2 mph 58% 0.00 in 11 W/m2
18:25 30.9 °F 18.2 °F 30.24 in West 2 mph 2 mph 59% 0.00 in 9 W/m2
18:30 30.6 °F 18 °F 30.25 in West 1 mph 2 mph 59% 0.00 in 5 W/m2
18:35 30.5 °F 18.3 °F 30.25 in West 1 mph 2 mph 60% 0.00 in 0 W/m2
18:40 30.3 °F 18.5 °F 30.25 in West 1 mph 1 mph 61% 0.00 in 0 W/m2
18:45 30.1 °F 18.6 °F 30.25 in NW 2 mph 3 mph 62% 0.00 in 0 W/m2
18:50 30 °F 18.9 °F 30.25 in NW 2 mph 2 mph 63% 0.00 in 0 W/m2
18:55 29.9 °F 19.2 °F 30.25 in NW 2 mph 3 mph 64% 0.00 in 0 W/m2
19:00 29.7 °F 20.4 °F 30.25 in NNE 3 mph 3 mph 68% 0.00 in 0 W/m2
19:05 29.2 °F 21.3 °F 30.26 in NNE 2 mph 3 mph 72% 0.00 in 0 W/m2
19:10 28.8 °F 21.2 °F 30.26 in NE 1 mph 3 mph 73% 0.00 in 0 W/m2
19:15 28.6 °F 21 °F 30.26 in NE 1 mph 3 mph 73% 0.00 in 0 W/m2
19:20 28.4 °F 20.8 °F 30.26 in NE 1 mph 1 mph 73% 0.00 in 0 W/m2
19:25 28.2 °F 20.7 °F 30.26 in NE 1 mph 2 mph 73% 0.00 in 0 W/m2
19:30 28 °F 20.5 °F 30.27 in NE 1 mph 1 mph 73% 0.00 in 0 W/m2
19:35 27.7 °F 20.2 °F 30.27 in NE 1 mph 1 mph 73% 0.00 in 0 W/m2
19:40 27.6 °F 20.1 °F 30.27 in NE 1 mph 1 mph 73% 0.00 in 0 W/m2
19:45 27.5 °F 19.7 °F 30.27 in NE 1 mph 1 mph 72% 0.00 in 0 W/m2
19:50 27.2 °F 19 °F 30.27 in NE 1 mph 1 mph 71% 0.00 in 0 W/m2
19:55 27.1 °F 18.9 °F 30.27 in NE 1 mph 1 mph 71% 0.00 in 0 W/m2
20:00 27 °F 19.2 °F 30.27 in NE 1 mph 1 mph 72% 0.00 in 0 W/m2
20:05 27 °F 18.8 °F 30.27 in NE 1 mph 1 mph 71% 0.00 in 0 W/m2
20:10 26.8 °F 18.7 °F 30.27 in NE 1 mph 1 mph 71% 0.00 in 0 W/m2
20:15 26.8 °F 18.7 °F 30.28 in NE 1 mph 1 mph 71% 0.00 in 0 W/m2
20:20 26.9 °F 18.7 °F 30.28 in Calm   1 mph 71% 0.00 in 0 W/m2
20:25 26.4 °F 18.6 °F 30.28 in Calm   1 mph 72% 0.00 in 0 W/m2
20:30 26.4 °F 18.6 °F 30.28 in NE 1 mph 1 mph 72% 0.00 in 0 W/m2
20:35 26.1 °F 18.3 °F 30.29 in Calm   1 mph 72% 0.00 in 0 W/m2
20:40 25.9 °F 18.4 °F 30.29 in Calm     73% 0.00 in 0 W/m2
20:45 25.6 °F 18.5 °F 30.29 in Calm     74% 0.00 in 0 W/m2
20:50 25.1 °F 18.3 °F 30.29 in Calm   1 mph 75% 0.00 in 0 W/m2
20:55 25.2 °F 18.7 °F 30.29 in NW 1 mph 1 mph 76% 0.00 in 0 W/m2
21:00 25.8 °F 18.3 °F 30.29 in NW 2 mph 2 mph 73% 0.00 in 0 W/m2
21:05 26.5 °F 18 °F 30.29 in NNW 2 mph 3 mph 70% 0.00 in 0 W/m2
21:10 26.9 °F 17.7 °F 30.29 in NW 3 mph 3 mph 68% 0.00 in 0 W/m2
21:15 27 °F 18.2 °F 30.30 in North 3 mph 3 mph 69% 0.00 in 0 W/m2
21:20 27 °F 17.8 °F 30.30 in NNW 3 mph 4 mph 68% 0.00 in 0 W/m2
21:25 27.1 °F 17.6 °F 30.30 in NW 3 mph 4 mph 67% 0.00 in 0 W/m2
21:30 27.1 °F 17.9 °F 30.30 in NNW 3 mph 3 mph 68% 0.00 in 0 W/m2
21:35 27.1 °F 17.9 °F 30.30 in NNW 3 mph 3 mph 68% 0.00 in 0 W/m2
21:40 26.9 °F 17.7 °F 30.30 in North 3 mph 3 mph 68% 0.00 in 0 W/m2
21:45 26.9 °F 18.1 °F 30.30 in NW 3 mph 3 mph 69% 0.00 in 0 W/m2
21:50 26.7 °F 17.6 °F 30.30 in North 3 mph 8 mph 68% 0.00 in 0 W/m2
21:55 26.6 °F 18.1 °F 30.30 in NNW 3 mph 8 mph 70% 0.00 in 0 W/m2
22:00 26.4 °F 17.9 °F 30.30 in NW 3 mph 3 mph 70% 0.00 in 0 W/m2
22:05 26.4 °F 17.9 °F 30.30 in NNW 2 mph 3 mph 70% 0.00 in 0 W/m2
22:10 26.3 °F 17.8 °F 30.30 in NW 2 mph 3 mph 70% 0.00 in 0 W/m2
22:15 26.2 °F 17.7 °F 30.30 in NNW 2 mph 3 mph 70% 0.00 in 0 W/m2
22:20 26.1 °F 18 °F 30.30 in NNW 2 mph 4 mph 71% 0.00 in 0 W/m2
22:25 26 °F 17.9 °F 30.30 in NNW 2 mph 4 mph 71% 0.00 in 0 W/m2
22:30 26 °F 17.6 °F 30.30 in NW 3 mph 4 mph 70% 0.00 in 0 W/m2
22:35 26 °F 17.6 °F 30.30 in NNW 3 mph 4 mph 70% 0.00 in 0 W/m2
22:40 25.8 °F 17.7 °F 30.30 in WNW 3 mph 3 mph 71% 0.00 in 0 W/m2
22:45 25.8 °F 17.7 °F 30.30 in NNW 2 mph 4 mph 71% 0.00 in 0 W/m2
22:50 25.6 °F 17.5 °F 30.31 in NNW 3 mph 3 mph 71% 0.00 in 0 W/m2
22:55 25.5 °F 17.4 °F 30.30 in NW 3 mph 3 mph 71% 0.00 in 0 W/m2
23:00 25.4 °F 17.3 °F 30.30 in NNW 2 mph 2 mph 71% 0.00 in 0 W/m2
23:05 25.3 °F 17.5 °F 30.30 in NW 2 mph 2 mph 72% 0.00 in 0 W/m2
23:10 25.2 °F 17.8 °F 30.30 in NNW 2 mph 2 mph 73% 0.00 in 0 W/m2
23:15 25.1 °F 17.3 °F 30.30 in NW 2 mph 2 mph 72% 0.00 in 0 W/m2
23:20 25 °F 17.2 °F 30.30 in NNW 2 mph 2 mph 72% 0.00 in 0 W/m2
23:25 24.9 °F 17.5 °F 30.31 in NNW 2 mph 2 mph 73% 0.00 in 0 W/m2
23:30 24.7 °F 17.3 °F 30.31 in NNW 1 mph 1 mph 73% 0.00 in 0 W/m2
23:35 24.6 °F 17.5 °F 30.31 in NW 1 mph 3 mph 74% 0.00 in 0 W/m2
23:40 24.6 °F 17.5 °F 30.31 in NNW 2 mph 2 mph 74% 0.00 in 0 W/m2
23:45 24.7 °F 17.6 °F 30.31 in North 2 mph 2 mph 74% 0.00 in 0 W/m2
23:50 24.8 °F 17.1 °F 30.32 in North 2 mph 2 mph 72% 0.00 in 0 W/m2
23:55 24.8 °F 16.7 °F 30.32 in NNE 2 mph 5 mph 71% 0.00 in 0 W/m2
Sand Point, Michigan, USA
Compliments of Weather Underground - 2 mb